Weather reports worldwide

Advertisment
Talavera de la Reina, Spain (8274): temperature & dewpoint: 18.01.2020 04:00:00 - 24.01.2020 04:00:00 (CET)Talavera de la Reina, Spain (8274): wind speed & gusts: 18.01.2020 04:00:00 - 24.01.2020 04:00:00 (CET)Talavera de la Reina, Spain (8274): wind direction: 18.01.2020 04:00:00 - 24.01.2020 04:00:00 (CET)Talavera de la Reina, Spain (8274): reduced air pressure: 18.01.2020 04:00:00 - 24.01.2020 04:00:00 (CET)Talavera de la Reina, Spain (8274): visibility: 18.01.2020 04:00:00 - 24.01.2020 04:00:00 (CET)Talavera de la Reina, Spain (8274): sunshine duration: 18.01.2020 04:00:00 - 24.01.2020 04:00:00 (CET)Talavera de la Reina, Spain (8274): precipitation: 18.01.2020 04:00:00 - 24.01.2020 04:00:00 (CET)
Date & Time tt [°C] td [°C] ff [km/h] ff [kn] fx [km/h] fx [kn] dd ppp [hPa] vv [km] sd [min] rr [mm]
24.01.2020 04:00:00 - - - - - - - - - - -
24.01.2020 03:00:00 7,8 6,1 0 0 9 5 N 1020,4 4,8 0 0,8
24.01.2020 02:00:00 8,2 6,1 4 2 16 9 ESE 1020,3 10 0 0,2
24.01.2020 01:00:00 8,3 5,8 4 2 14 8 NE 1020,4 20 0 -
24.01.2020 00:00:00 8,5 5,8 6 3 10 5 E 1020,3 18 0 0,0
23.01.2020 23:00:00 8,4 5,1 6 3 10 5 E 1020,0 19 0 0,0
23.01.2020 22:00:00 8,0 5,1 6 3 11 6 E 1019,9 16 0 0,0
23.01.2020 21:00:00 8,9 5,3 6 3 12 6 E 1019,4 16 0 0,0
23.01.2020 20:00:00 9,2 5,0 4 2 10 5 E 1019,0 15 0 0,0
23.01.2020 19:00:00 9,1 4,6 8 4 18 10 ENE 1018,5 18 0 -
23.01.2020 18:00:00 10,0 5,0 9 5 26 14 E 1018,2 18 0 0,0
23.01.2020 17:00:00 10,3 4,6 14 7 28 15 E 1017,9 19 1 0,0
23.01.2020 16:00:00 9,9 4,5 13 7 30 16 E 1018,2 15 12 0,0
23.01.2020 15:00:00 10,4 4,3 16 9 32 17 E 1018,2 20 18 0,0
23.01.2020 14:00:00 8,8 3,4 18 10 42 23 E 1019,4 15 0 0,0
23.01.2020 13:00:00 8,3 3,2 19 10 40 22 E 1020,2 17 0 -
23.01.2020 12:00:00 7,5 3,4 13 7 32 17 E 1020,8 19 0 0,0
23.01.2020 11:00:00 6,3 2,3 17 9 33 18 E 1020,7 17 0 0,0
23.01.2020 10:00:00 6,0 2,7 9 5 22 12 E 1020,0 19 0 0,0
23.01.2020 09:00:00 5,5 2,5 8 5 19 10 E 1019,4 19 0 0,0
23.01.2020 08:00:00 5,7 2,5 8 5 19 10 E 1019,0 20 0 0,0
23.01.2020 07:00:00 5,9 2,5 10 5 25 13 E 1018,7 20 0 -
23.01.2020 06:00:00 6,7 2,9 12 6 26 14 E 1018,6 20 0 0,0
23.01.2020 05:00:00 6,9 3,0 12 6 27 15 E 1018,9 20 0 0,0
23.01.2020 04:00:00 7,1 3,0 15 8 32 17 E 1019,0 20 0 0,0
23.01.2020 03:00:00 7,2 3,0 15 8 34 18 E 1018,8 20 0 0,0
23.01.2020 02:00:00 7,4 2,9 12 7 31 17 ESE 1019,0 20 0 0,0
23.01.2020 01:00:00 7,7 3,0 16 8 28 15 E 1018,8 20 0 -
23.01.2020 00:00:00 7,8 2,9 12 7 25 14 E 1018,6 20 0 0,0
22.01.2020 23:00:00 7,6 3,4 11 6 20 11 E 1018,6 20 0 0,0
22.01.2020 22:00:00 7,6 3,8 10 6 20 11 E 1018,3 20 0 0,0
22.01.2020 21:00:00 6,7 3,4 7 4 11 6 E 1018,1 20 0 0,0
22.01.2020 20:00:00 8,3 3,8 8 4 23 12 E 1017,3 20 0 0,0
22.01.2020 19:00:00 9,4 4,5 9 5 17 9 ENE 1016,7 20 0 -
22.01.2020 18:00:00 10,3 5,1 7 4 19 11 ENE 1016,4 20 0 0,0
22.01.2020 17:00:00 10,7 4,8 13 7 27 15 E 1016,7 20 0 0,0
22.01.2020 16:00:00 10,9 4,8 18 10 35 19 E 1017,1 20 0 0,0
22.01.2020 15:00:00 10,9 5,0 16 9 31 17 E 1017,6 20 11 0,0
22.01.2020 14:00:00 10,6 4,6 16 9 31 17 E 1018,7 20 9 0,0
22.01.2020 13:00:00 10,2 4,5 19 10 41 22 E 1019,4 20 31 -
22.01.2020 12:00:00 9,3 4,1 20 11 39 21 E 1019,8 20 13 0,0
22.01.2020 11:00:00 8,0 3,8 20 11 43 23 E 1019,7 20 0 0,0
22.01.2020 10:00:00 7,4 3,4 18 10 34 19 E 1019,5 20 0 0,0
22.01.2020 09:00:00 7,4 2,9 18 10 32 17 E 1018,8 20 0 0,0
22.01.2020 08:00:00 7,1 3,4 13 7 28 15 E 1018,4 20 0 0,0
22.01.2020 07:00:00 6,7 3,6 15 8 33 18 E 1018,3 20 0 -
22.01.2020 06:00:00 7,5 2,9 14 8 32 17 E 1018,2 20 0 0,0
22.01.2020 05:00:00 7,6 2,9 11 6 21 12 E 1018,5 20 0 0,0
22.01.2020 04:00:00 7,5 3,0 8 4 24 13 SE 1018,7 20 0 0,0
22.01.2020 03:00:00 7,5 3,2 11 6 23 12 E 1018,5 20 0 0,0
22.01.2020 02:00:00 7,3 3,2 10 5 24 13 E 1018,7 20 0 0,0
22.01.2020 01:00:00 7,0 3,0 6 4 18 10 SE 1018,9 20 0 -
22.01.2020 00:00:00 7,2 2,9 8 5 22 12 SE 1018,6 20 0 0,0
21.01.2020 23:00:00 7,5 2,9 15 8 27 14 ESE 1018,3 20 0 0,0
21.01.2020 22:00:00 7,7 3,0 13 7 35 19 E 1017,9 20 0 0,0
21.01.2020 21:00:00 7,9 3,0 18 10 40 22 E 1017,5 20 0 0,0
21.01.2020 20:00:00 7,1 4,1 12 6 34 18 E 1017,3 20 0 0,0
21.01.2020 19:00:00 7,0 3,9 17 9 49 26 E 1017,1 20 0 -
21.01.2020 18:00:00 8,7 2,5 26 14 66 35 E 1016,6 20 0 0,0
21.01.2020 17:00:00 10,6 1,1 27 14 53 29 E 1015,8 20 0 0,0
21.01.2020 16:00:00 10,5 1,3 19 10 46 25 E 1015,4 20 0 0,0
21.01.2020 15:00:00 10,3 1,1 23 12 51 28 E 1016,1 20 0 0,0
21.01.2020 14:00:00 10,0 0,9 25 13 59 32 E 1017,4 20 0 0,0
21.01.2020 13:00:00 9,6 1,3 22 12 45 25 E 1018,7 20 0 -
21.01.2020 12:00:00 9,2 0,9 19 10 49 26 E 1019,3 20 2 0,0
21.01.2020 11:00:00 8,6 0,0 20 11 35 19 ESE 1019,8 20 0 0,0
21.01.2020 10:00:00 7,8 -0,5 14 8 40 22 ESE 1020,1 20 0 0,0
21.01.2020 09:00:00 7,2 -1,2 21 12 50 27 E 1020,4 20 0 0,0
21.01.2020 08:00:00 7,4 -1,2 23 12 41 22 E 1020,4 20 0 0,0
21.01.2020 07:00:00 6,9 -1,0 18 10 36 20 E 1020,7 20 0 -
21.01.2020 06:00:00 7,0 -0,7 18 10 36 19 E 1020,8 20 0 0,0
21.01.2020 05:00:00 6,5 -0,5 18 10 53 28 E 1021,4 20 0 0,0
21.01.2020 04:00:00 7,5 -1,0 27 15 61 33 E 1022,1 20 0 0,0
21.01.2020 03:00:00 7,4 -0,5 24 13 51 28 E 1022,3 20 0 0,0
21.01.2020 02:00:00 6,9 0,2 18 10 46 25 E 1023,0 20 0 0,0
21.01.2020 01:00:00 8,0 -2,0 26 14 52 28 E 1023,3 20 0 -
21.01.2020 00:00:00 8,0 -3,0 26 14 56 30 E 1023,8 20 0 0,0
20.01.2020 23:00:00 7,3 -2,2 29 16 66 36 E 1023,5 20 0 0,0
20.01.2020 22:00:00 7,7 -2,7 24 13 48 26 E 1023,2 20 0 0,0
20.01.2020 21:00:00 7,7 -2,2 22 12 58 31 E 1023,3 20 0 0,0
20.01.2020 20:00:00 7,4 -0,7 20 11 53 29 ENE 1023,1 20 0 0,0
20.01.2020 19:00:00 7,8 -2,5 25 14 58 31 E 1022,5 20 0 -
20.01.2020 18:00:00 8,3 -3,3 26 14 52 28 E 1021,8 20 25 0,0
20.01.2020 17:00:00 7,8 -1,2 20 11 54 29 ENE 1021,9 20 28 0,0
20.01.2020 16:00:00 8,2 -3,9 29 15 59 32 E 1022,3 20 0 0,0
20.01.2020 15:00:00 8,2 -4,2 22 12 58 32 E 1022,7 20 0 0,0
20.01.2020 14:00:00 7,9 -4,8 33 18 63 34 E 1023,9 20 0 0,0
20.01.2020 13:00:00 7,8 -7,1 32 18 59 32 ESE 1024,4 20 0 -
20.01.2020 12:00:00 6,8 -7,5 14 7 32 17 ESE 1025,0 20 30 0,0
20.01.2020 11:00:00 5,9 -8,2 14 8 31 17 E 1024,8 20 16 0,0
20.01.2020 10:00:00 2,9 -5,4 7 4 14 8 ENE 1024,9 20 1 0,0
20.01.2020 09:00:00 -0,5 -5,7 3 2 9 5 NNW 1025,3 20 0 0,0
20.01.2020 08:00:00 1,0 -6,0 4 2 22 12 NE 1025,1 20 0 0,0
20.01.2020 07:00:00 3,3 -7,1 11 6 32 17 E 1024,3 20 0 -
20.01.2020 06:00:00 4,3 -7,8 13 7 26 14 E 1024,2 20 0 0,0
20.01.2020 05:00:00 4,0 -6,4 5 3 19 10 NE 1025,0 20 0 0,0
20.01.2020 04:00:00 4,9 -7,8 8 5 17 9 ESE 1025,5 20 0 0,0
20.01.2020 03:00:00 4,1 -6,0 4 2 12 6 ENE 1025,8 20 0 0,0
20.01.2020 02:00:00 4,7 -6,4 7 4 25 14 E 1026,4 20 0 0,0
20.01.2020 01:00:00 5,5 -7,1 16 8 31 17 E 1026,7 20 0 -
20.01.2020 00:00:00 5,5 -7,1 12 6 53 29 E 1026,6 20 0 0,0
19.01.2020 23:00:00 6,0 -7,1 29 16 56 30 ENE 1025,5 20 0 0,0
19.01.2020 22:00:00 6,4 -8,2 25 13 54 29 ENE 1025,3 20 0 0,0
19.01.2020 21:00:00 6,9 -7,8 28 15 68 37 ENE 1024,6 20 0 0,0
19.01.2020 20:00:00 8,0 -7,5 28 15 51 27 ENE 1024,0 20 0 0,0
19.01.2020 19:00:00 9,0 -6,4 23 12 59 32 ENE 1023,4 20 15 -
19.01.2020 18:00:00 10,3 -6,4 26 14 57 31 NE 1022,3 20 0 0,0
19.01.2020 17:00:00 11,0 -6,4 31 17 53 29 ENE 1021,5 20 8 0,0
19.01.2020 16:00:00 11,0 -5,1 29 15 62 34 NE 1021,7 20 15 0,0
19.01.2020 15:00:00 11,8 -2,5 28 15 48 26 NE 1021,5 20 42 0,0
19.01.2020 14:00:00 11,8 -0,5 25 14 53 28 NE 1022,3 20 24 0,0
19.01.2020 13:00:00 9,7 -0,7 29 16 60 32 NE 1023,4 20 20 -
19.01.2020 12:00:00 10,3 1,7 18 10 51 28 NE 1023,3 20 19 0,0
19.01.2020 11:00:00 7,7 3,4 11 6 44 24 NNE 1023,2 20 0 0,0
19.01.2020 10:00:00 5,1 4,3 5 3 15 8 NNE 1022,8 20 0 0,0
19.01.2020 09:00:00 4,0 3,0 4 2 10 5 S 1022,9 20 0 0,0
19.01.2020 08:00:00 3,0 1,9 2 1 9 5 ESE 1022,6 7 0 0,0
19.01.2020 07:00:00 3,7 2,5 3 1 9 5 WNW 1022,4 19 0 -
19.01.2020 06:00:00 5,1 3,8 5 3 12 7 E 1022,4 19 0 0,0
19.01.2020 05:00:00 5,8 4,5 4 2 11 6 ENE 1022,4 20 0 0,0
19.01.2020 04:00:00 7,0 5,1 6 3 12 6 SSW 1022,1 20 0 0,0
19.01.2020 03:00:00 7,0 5,1 8 4 14 8 WNW 1022,2 20 0 0,0
19.01.2020 02:00:00 7,7 5,9 6 4 21 11 WSW 1021,5 20 0 0,0
19.01.2020 01:00:00 8,6 6,8 5 3 39 21 W 1021,9 20 0 -
19.01.2020 00:00:00 9,8 8,1 16 9 34 18 NW 1022,2 20 0 0,0
18.01.2020 23:00:00 10,4 8,8 20 11 35 19 WNW 1021,8 20 0 0,0
18.01.2020 22:00:00 10,4 9,0 11 6 40 21 NW 1021,9 20 0 0,0
18.01.2020 21:00:00 10,5 9,6 18 10 32 17 W 1022,0 20 0 0,0
18.01.2020 20:00:00 10,3 9,4 14 7 23 13 WNW 1022,3 20 0 0,0
18.01.2020 19:00:00 9,9 8,8 8 5 17 9 W 1022,3 20 0 -
18.01.2020 18:00:00 10,0 8,9 9 5 15 8 W 1023,4 20 0 0,2
18.01.2020 17:00:00 10,4 9,3 12 7 21 11 WNW 1023,9 7 0 0,2
18.01.2020 16:00:00 10,7 9,6 11 6 18 10 W 1025,0 6 0 0,0
18.01.2020 15:00:00 10,3 9,0 7 4 13 7 W 1026,3 9 0 0,0
18.01.2020 14:00:00 9,5 8,4 2 1 9 5 SSE 1027,9 5 0 0,2
18.01.2020 13:00:00 8,9 8,0 5 3 11 6 E 1029,6 3,0 0 -
18.01.2020 12:00:00 8,0 7,1 7 4 12 6 E 1031,0 3,2 0 0,4
18.01.2020 11:00:00 7,5 6,4 5 3 10 6 ENE 1031,3 5 0 0,0
18.01.2020 10:00:00 7,0 6,1 4 2 9 5 E 1031,2 7 0 0,2
18.01.2020 09:00:00 6,9 5,8 5 3 11 6 NE 1031,4 5 0 0,0
18.01.2020 08:00:00 6,6 5,6 3 2 10 6 WSW 1031,7 8 0 1,6
18.01.2020 07:00:00 6,6 5,6 8 4 11 6 ENE 1032,3 4,0 0 -
18.01.2020 06:00:00 6,1 5,0 5 3 10 5 NNE 1031,8 8 0 0,2
18.01.2020 05:00:00 6,0 4,8 8 4 12 7 ENE 1031,4 16 0 0,0
18.01.2020 04:00:00 5,7 4,5 3 2 4 2 E 1031,7 13 0 0,0

tt = temperature
td = dewpoint
ff = wind speed
fx = gusts
dd = wind direction
ppp = reduced air pressure
vv = visibility
sd = sunshine duration
rr = precipitation

Next stations